This demonstration page uses our WeatherBlox Daily Observations layout. Learn more.

Left ArrowRight Arrow

Hourly Observations for August 13, 2022

Temp ( °F °C ) Dew Point ( °F °C ) Humidity (%) Winds ( mph kmh ) Pressure ( in mb ) Visibility ( mi km ) Precip ( " mm )
12:15 am 00:15 Clear 80 26.8 55 12.5 41 41 S 16 26 29.86 1011 10 16 0.00 0.00
12:35 am 00:35 Clear 80 26.7 54 12.3 41 41 S 17 28 29.86 1011 10 16 0.00 0.00
12:55 am 00:55 Clear 80 26.4 54 12.4 42 42 S 13 20 29.88 1012 10 16 0.00 0.00
1:15 am 01:15 Clear 78 25.7 55 12.5 44 44 S 13 20 29.89 1012 10 16 0.00 0.00
1:35 am 01:35 Clear 77 25.1 55 12.5 45 45 S 10 17 29.90 1012 10 16 0.00 0.00
1:55 am 01:55 Clear 76 24.7 55 12.5 47 47 S 10 17 29.90 1013 10 16 0.00 0.00
2:15 am 02:15 Partly Cloudy 76 24.5 54 12.3 47 47 S 8 13 29.90 1013 10 16 0.00 0.00
2:35 am 02:35 Clear 76 24.5 54 12 46 46 SSW 7 11 29.90 1013 10 16 0.00 0.00
2:55 am 02:55 Clear 76 24.5 53 11.8 45 45 NW 9 15 29.92 1013 10 16 0.00 0.00
3:15 am 03:15 Clear 72 22 55 12.5 55 55 NNW 7 11 29.95 1014 10 16 0.00 0.00
3:35 am 03:35 Clear 70 21.1 56 13.1 60 60 W 6 9 29.95 1014 10 16 0.00 0.00
3:55 am 03:55 Clear 68 19.8 56 13.3 66 66 WNW 3 6 29.96 1015 10 16 0.00 0.00
4:15 am 04:15 Clear 69 20.6 56 13.1 62 62 SW 7 11 29.96 1014 10 16 0.00 0.00
4:35 am 04:35 Clear 67 19.3 56 13.1 67 67 W 6 9 29.98 1015 10 16 0.00 0.00
4:55 am 04:55 Clear 65 18.2 57 13.9 76 76 NW 5 7 29.99 1015 10 16 0.00 0.00
5:15 am 05:15 Clear 64 17.8 58 14.3 80 80 Calm 29.99 1016 10 16 0.00 0.00
5:35 am 05:35 Clear 64 17.5 58 14.4 82 82 Calm 29.99 1016 10 16 0.00 0.00
5:55 am 05:55 Clear 64 17.6 58 14.5 82 82 Calm 29.99 1016 10 16 0.00 0.00
6:15 am 06:15 Clear 62 16.9 58 14.2 84 84 Calm 30.00 1016 10 16 0.00 0.00
6:35 am 06:35 Clear 63 17.4 57 13.9 80 80 SSE 5 7 29.99 1016 10 16 0.00 0.00
6:55 am 06:55 Sunny 63 17.3 56 13.2 77 77 Calm 29.99 1016 10 16 0.00 0.00
7:15 am 07:15 Sunny 64 17.5 57 13.8 79 79 Calm 29.99 1016 10 16 0.00 0.00
7:35 am 07:35 Sunny 65 18.6 58 14.4 77 77 S 5 7 29.98 1015 10 16 0.00 0.00
7:55 am 07:55 Sunny 69 20.3 58 14.5 69 69 SSW 5 7 29.97 1015 10 16 0.00 0.00
8:15 am 08:15 Sunny 71 21.7 60 15.7 69 69 NNW 13 20 29.97 1015 10 16 0.00 0.00
8:35 am 08:35 Sunny 70 21.1 58 14.6 66 66 N 7 11 29.97 1015 10 16 0.00 0.00
8:55 am 08:55 Sunny 73 23 58 14.7 60 60 N 8 13 29.96 1014 10 16 0.00 0.00
9:15 am 09:15 Sunny 75 24.1 64 17.9 68 68 NE 8 13 29.95 1014 10 16 0.00 0.00
9:35 am 09:35 Sunny 77 24.9 66 18.9 69 69 NE 8 13 29.95 1014 10 16 0.00 0.00
9:55 am 09:55 Sunny 78 25.8 67 19.3 67 67 NE 8 13 29.93 1014 10 16 0.00 0.00
10:15 am 10:15 Sunny 80 26.6 67 19.7 66 66 NE 8 13 29.93 1013 10 16 0.00 0.00
10:35 am 10:35 Sunny 82 27.5 69 20.3 65 65 ENE 8 13 29.93 1014 10 16 0.00 0.00
10:55 am 10:55 Sunny 83 28.3 70 20.9 64 64 NE 9 15 29.92 1013 10 16 0.00 0.00
11:15 am 11:15 Sunny 84 29.1 69 20.8 61 61 ENE 12 19 29.92 1013 7 11 0.00 0.00
11:35 am 11:35 Sunny 85 29.3 69 20.5 59 59 ENE 9 15 29.92 1013 7 11 0.00 0.00
11:55 am 11:55 Sunny 86 29.9 69 20.4 57 57 ENE 10 17 29.92 1013 10 16 0.00 0.00
12:15 pm 12:15 Sunny 87 30.4 68 19.8 53 53 ENE 10 17 29.91 1013 10 16 0.00 0.00
12:35 pm 12:35 Sunny 87 30.7 67 19.6 52 52 ENE 10 17 29.91 1013 10 16 0.00 0.00
12:55 pm 12:55 Sunny 87 30.6 68 19.8 53 53 ESE 9 15 29.90 1013 10 16 0.00 0.00
1:15 pm 13:15 Sunny 89 31.4 68 20 51 51 E 10 17 29.90 1012 10 16 0.00 0.00
1:35 pm 13:35 Sunny 89 31.5 67 19.3 48 48 E 10 17 29.89 1012 10 16 0.00 0.00
1:55 pm 13:55 Sunny 90 32.4 68 19.9 48 48 ENE 8 13 29.87 1011 10 16 0.00 0.00
2:15 pm 14:15 Sunny 91 32.5 69 20.6 50 50 ESE 9 15 29.87 1011 10 16 0.00 0.00
2:55 pm 14:55 Sunny 92 33.2 67 19.5 45 45 E 10 17 29.86 1011 10 16 0.00 0.00
3:15 pm 15:15 Sunny 92 33.6 67 19.7 44 44 ESE 8 13 29.85 1011 10 16 0.00 0.00
3:35 pm 15:35 Sunny 92 33.1 68 19.9 46 46 ESE 12 19 29.85 1011 10 16 0.00 0.00
3:55 pm 15:55 Sunny 92 33.2 67 19.4 44 44 SE 10 17 29.84 1011 10 16 0.00 0.00
4:15 pm 16:15 Sunny 92 33.3 67 19.7 45 45 ESE 10 17 29.84 1011 10 16 0.00 0.00
4:35 pm 16:35 Sunny 92 33.5 67 19.6 44 44 E 12 19 29.84 1011 10 16 0.00 0.00
4:55 pm 16:55 Sunny 91 32.9 68 19.9 46 46 E 10 17 29.85 1011 10 16 0.00 0.00
5:15 pm 17:15 Sunny 92 33.4 68 20.2 46 46 E 10 17 29.84 1011 10 16 0.00 0.00
5:35 pm 17:35 Sunny 92 33.1 68 20 46 46 E 13 20 29.85 1011 10 16 0.00 0.00
5:55 pm 17:55 Sunny 91 33 67 19.6 45 45 E 10 17 29.83 1010 10 16 0.00 0.00
6:15 pm 18:15 Sunny 91 32.6 69 20.3 48 48 E 13 20 29.84 1010 10 16 0.00 0.00
6:35 pm 18:35 Sunny 90 32.3 69 20.3 49 49 ESE 12 19 29.84 1011 10 16 0.00 0.00
6:55 pm 18:55 Sunny 89 31.8 69 20.3 51 51 E 13 20 29.84 1010 10 16 0.00 0.00
7:15 pm 19:15 Sunny 88 31.3 70 21 54 54 E 12 19 29.84 1010 10 16 0.00 0.00
7:35 pm 19:35 Sunny 87 30.6 69 20.6 55 55 E 10 17 29.85 1011 10 16 0.00 0.00
7:55 pm 19:55 Sunny 85 29.5 70 21.2 61 61 E 10 17 29.85 1011 10 16 0.00 0.00
8:15 pm 20:15 Sunny 83 28.4 70 21.2 65 65 E 8 13 29.86 1011 10 16 0.00 0.00
8:35 pm 20:35 Sunny 82 27.6 70 20.9 67 67 E 12 19 29.88 1012 10 16 0.00 0.00
8:55 pm 20:55 Clear 81 27 68 20.2 66 66 E 10 17 29.88 1012 10 16 0.00 0.00
9:15 pm 21:15 Clear 79 26.1 68 20 69 69 E 7 11 29.90 1013 10 16 0.00 0.00
9:35 pm 21:35 Clear 76 24.6 68 20 76 76 E 9 15 29.91 1013 10 16 0.00 0.00
9:55 pm 21:55 Clear 76 24.5 67 19.5 74 74 E 10 17 29.92 1013 10 16 0.00 0.00
10:15 pm 22:15 Clear 76 24.2 67 19.5 75 75 E 9 15 29.94 1014 10 16 0.00 0.00
10:35 pm 22:35 Clear 75 23.8 67 19.6 77 77 E 10 17 29.94 1014 10 16 0.00 0.00
10:55 pm 22:55 Clear 73 23 67 19.7 82 82 E 8 13 29.95 1014 10 16 0.00 0.00
11:15 pm 23:15 Clear 73 22.5 67 19.5 83 83 E 9 15 29.95 1014 10 16 0.00 0.00
11:35 pm 23:35 Clear 72 22 67 19.5 86 86 E 8 13 29.95 1014 10 16 0.00 0.00
11:55 pm 23:55 Clear 71 21.8 67 19.3 86 86 E 9 15 29.96 1014 10 16 0.00 0.00

Powered by AerisWeather